Location: Clyde
(45.1830°S, 169.3170°E)
Time: 09:41:45
(UTC+12:00)

Cosmos 1777 Rocket - Pass Details

Date: 14 May 2021
Orbit: 758 x 776 km, 74.0° (Epoch: 15 June)

Event Time Altitude Azimuth Distance (km) Brightness Sun altitude
Rises 18:44:16 0° 199° (SSW) 3,286 7.4 -14.0°
Reaches altitude 10° 18:46:43 10° 195° (SSW) 2,350 6.6 -14.5°
Maximum altitude 18:52:00 61° 114° (ESE) 886 4.0 -15.4°
Drops below altitude 10° 18:57:12 10° 34° (NE) 2,309 6.2 -16.3°
Sets 18:59:35 0° 30° (NNE) 3,225 7.0 -16.7°
